Regional Weather Roundup
Issued by NWS

Home | Current Version | Previous Version | Graphics & Text | Print | Product List | Glossary On
Versions: 1 2 3 4 5 6 7 8 9 10 11 12 13 14 15 16 17 18 19 20 21 22 23 24 25 26 27 28 29 30 31 32 33 34 35 36 37 38 39 40 41 42 43 44 45 46 47 48 49 50
000
ASUS43 KLOT 221610
RWRIL

ILLINOIS REGIONAL WEATHER ROUNDUP
NATIONAL WEATHER SERVICE CHICAGO/ROMEOVILLE IL
1000 AM CST MON DEC 22 2014

NOTE: "FAIR" INDICATES FEW OR NO CLOUDS BELOW 12,000 FEET WITH NO
SIGNIFICANT WEATHER AND/OR OBSTRUCTIONS TO VISIBILITY.

* THESE STATIONS ARE NOT UNDER NWS QUALITY CONTROL. THEY ALSO MAY NOT
  REPORT WEATHER SUCH AS PRECIPITATION OR FOG.

ILZ001-002-007-009-015-016-024-221700-
NORTHWEST ILLINOIS

CITY           SKY/WX    TMP DP  RH WIND       PRES   REMARKS
MOLINE         LGT RAIN  37  31  78 E16       29.75F WCI  28
STERLING*      CLOUDY    36  28  75 E10       29.81S WCI  28
SAVANNA*       CLOUDY    37  31  81 E6        29.79F WCI  32
$$

ILZ003-004-008-010-011-017-018-221700-
NORTH CENTRAL ILLINOIS

CITY           SKY/WX    TMP DP  RH WIND       PRES   REMARKS
ROCKFORD       CLOUDY    34  29  82 E14       29.85F HAZE    WCI  25
FREEPORT*      CLOUDY    33  31  94 E10       29.83S FOG     WCI  24
ROCHELLE*      CLOUDY    32  30  92 SE14      29.84S FOG     WCI  22
DE KALB*       CLOUDY    32  28  86 SE10      29.85S FOG     WCI  24
PERU*          DRIZZLE   35  32  90 SE14      29.83F WCI  25
$$

ILZ005-006-012>014-019>023-221700-
NORTHEAST ILLINOIS

CITY           SKY/WX    TMP DP  RH WIND       PRES   REMARKS
CHICAGO-OHARE  CLOUDY    35  27  72 E7        29.87F WCI  29
CHICAGO-MIDWAY CLOUDY    36  28  73 SE10      29.89F WCI  28
AURORA         CLOUDY    35  27  72 SE12      29.86F HAZE    WCI  27
LANSING*       MIX PCPN  33  28  83 SE8       29.90F WCI  26
JOLIET*        DRIZZLE   33  29  85 SE12G17   29.88F WCI  25
WAUKEGAN       CLOUDY    35  30  82 SE10      29.89S HAZE    WCI  27
DUPAGE AIRPORT CLOUDY    35  27  72 SE8       29.86F WCI  29
KANKAKEE*      LGT RAIN  33  32  93 E14       29.88F WCI  24
WHEELING       CLOUDY    34  28  79 E7        29.90F HAZE    WCI  28
MORRIS*        LGT RAIN  34  32  92 SE10      29.86F WCI  26
ROMEOVILLE*    DRIZZLE   35  29  81 SE13      29.87F WCI  26
NORTHERLY ISL    N/A     34  29  82 SE12        N/A  WCI  25
$$

LMZ740>746-221700-
SOUTHERN LAKE MICHIGAN

STATION/POSITION SKY/WX   TEMP    WIND        PRES    VSBY  WAVE
                          AIR SEA DIR/SP/G                  HT/PER
                          (F)     (DEG/KT/KT) (MB)    (MI)  (FT/S)
WAUKEGAN HARBOR            35     150/ 15/ 18   N/A
HARRISON CRIB              34     130/ 18/ 20   N/A
BURNHAM HARBOR             34     130/ 11/ 14   N/A
CALUMET HARBOR             34     110/  8/ 14 1011.3S
$$

ILZ025>027-034>036-040-047-049-050-058-095>099-221700-
WEST-CENTRAL ILLINOIS

CITY           SKY/WX    TMP DP  RH WIND       PRES   REMARKS
QUINCY         LGT RAIN  39  37  92 SE9       29.68F FOG     WCI  33
GALESBURG*     RAIN      36  34  94 E12       29.73F WCI  27
MACOMB*        LGT RAIN  37  36  98 SE12      29.74F WCI  29
JACKSONVILLE*  LGT RAIN  40  38  93 SE16      29.71F
PITTSFIELD*    LGT RAIN  40  38  93 SE10      29.71S
$$

ILZ028>032-037-038-041>044-048-051>054-059>061-221700-
CENTRAL ILLINOIS

CITY           SKY/WX    TMP DP  RH WIND       PRES   REMARKS
PONTIAC        MIX PCPN  34  33  94 E13       29.85F WCI  25
BLOOMINGTON    LGT RAIN  35  34  96 SE14      29.81F FOG     WCI  26
DECATUR        LGT RAIN  37  36  96 SE16      29.80F FOG     WCI  28
PEORIA         LGT RAIN  37  34  89 E13       29.77F FOG     WCI  29
LACON*         LGT RAIN  34  32  92 E12       29.80F WCI  25
LINCOLN*       LGT RAIN  37  35  95 SE9G16    29.79F WCI  30
SPRINGFIELD    RAIN      38  37  97 SE15      29.76F FOG     WCI  29
TAYLORVILLE    LGT RAIN  36  36 100 SE15      29.77F WCI  26
$$

ILZ033-039-045-046-055>057-062-063-221700-
EAST-CENTRAL ILLINOIS

CITY           SKY/WX    TMP DP  RH WIND       PRES   REMARKS
CHAMPAIGN      LGT RAIN  35  33  92 SE17      29.83F FOG     WCI  25
DANVILLE*      LGT RAIN  35  32  89 SE9       29.85F WCI  28
RANTOUL*       LGT RAIN  37  34  92 SE13      29.84F WCI  28
MATTOON        LGT RAIN  37  34  89 SE13      29.82F FOG     WCI  29
PARIS*         DRIZZLE   37  35  93 SE8       29.87F WCI  30
$$

ILZ079-100>102-221700-
SOUTHWEST ILLINOIS

CITY           SKY/WX    TMP DP  RH WIND       PRES   REMARKS
ALTON          LGT RAIN  41  39  93 SE16      29.74
CAHOKIA*       LGT RAIN  44  42  93 SE10      29.73F FOG
SPARTA*        LGT RAIN  43  42  97 SE8       29.76F
$$

ILZ064>066-069>071-074>076-080>082-084>086-088>090-092>094-221700-
SOUTH-CENTRAL ILLINOIS

CITY           SKY/WX    TMP DP  RH WIND       PRES   REMARKS
CARBONDALE     LGT RAIN  47  44  90 S14       29.79F FOG
CAIRO*         CLOUDY    50  50 100 SE9       29.80F FOG
EFFINGHAM*     RAIN      39  36  89 E10       29.84F WCI  32
MARION         RAIN      48  46  93 SE12      29.81F
MT. VERNON     CLOUDY    43  36  75 E6        29.82F
CENTRALIA*     LGT RAIN  41  38  89 SE12      29.79F
SALEM*         LGT RAIN  43  40  88 SE6       29.81F
METROPOLIS*    LGT RAIN  49  49  98 SE6       29.82F
$$

ILZ067-068-072-073-078-083-087-091-221700-
SOUTHEAST ILLINOIS

CITY           SKY/WX    TMP DP  RH WIND       PRES   REMARKS
LAWRENCEVILLE  CLOUDY    44  40  85 SE14      29.88F
FLORA*         LGT RAIN  40  39  95 SE12      29.84F
FAIRFIELD*     DRIZZLE   43  41  93 E8        29.83F
HARRISBURG*    CLOUDY    45  42  91 SE8       29.84F
ROBINSON*      CLOUDY    39  37  91 SE9       29.89F WCI  33
CARMI*         CLOUDY    46  43  89 SE9       29.86S
$$

ABBREVIATIONS USED IN REMARKS
   TC - TEMPERATURE IN CELSIUS
  WCI - WIND CHILL INDEX
   HX - HEAT INDEX
  VSB - VISIBILITY
$$



USA.gov is the U.S. government's official web portal to all federal, state and local government web resources and services.